Domov               UVHVVR             MKGP            O straneh              
ZDRAVSTVENO VARSTVO RASTLIN
  MREŽA AGROMET. POSTAJ
 ► PROGNOSTIČNA OBVESTILA
AGROMETEOROLOŠKI PODATKI -
ARSO
OBVLADOVANJE TVEGANJ ZARADI
NEUGODNIH VREMENSKIH RAZMER
  ► NARAVNE NESREČE
  ► SUŠA/MOČA
  ► NAMAKANJE
  ► ŽLED (gozdarstvo)
KARTOGRAFSKI PRIKAZI
SPLETNE POVEZAVE
PROJEKTI IN PUBLIKACIJE

AGROMETEOROLOŠKA MREŽA: VREMENSKE POSTAJE IN FENOLOŠKA OPAZOVANJA

Pregled podatkov za lokacijo Virštanj, meteorološka postaja 39749

Pregled senzorjev na lokaciji

ID Ime Zadnja
vrednost
Datum
zadnje
spremembe
Tip
senzorja
3127 Padavine (mm) 0 mm 25.2.2018 11:30 Rain-O-Matic
3125 Relativna vlaga 2 m (% RH) 64,76 % RH 25.2.2018 11:30 50YA
3124 Temperatura 2 m (°C) -8,11 °C 25.2.2018 11:30 50YA

Pregled podatkov zadnjih 24 ur

Zap.
št.
Datum in čas Virštanj
Padavine Relativna
vlaga
2
m
Temperatura
2
m
1 25.2.2018 12:30
2 25.2.2018 12:00
3 25.2.2018 11:30 0 64,8 -8,1
4 25.2.2018 11:00 0 64,2 -8
5 25.2.2018 10:30 0 64,5 -8,2
6 25.2.2018 10:00 0 65,6 -8,6
7 25.2.2018 09:30 0 67,6 -9,4
8 25.2.2018 09:00 0 67,5 -9,4
9 25.2.2018 08:30 0 67,4 -9,3
10 25.2.2018 08:00 0 69,5 -9,4
11 25.2.2018 07:30 0 69,9 -9,7
12 25.2.2018 07:00 0 69,2 -9,6
13 25.2.2018 06:30 0 68,7 -9,3
14 25.2.2018 06:00 0 68 -9
15 25.2.2018 05:30 0 67,3 -8,6
16 25.2.2018 05:00 0 69,9 -8,3
17 25.2.2018 04:30 0 73 -8
18 25.2.2018 04:00 0 72 -7,8
19 25.2.2018 03:30 0 70,2 -7,6
20 25.2.2018 03:00 0 69,1 -7,5
21 25.2.2018 02:30 0 67,9 -7,4
22 25.2.2018 02:00 0 66,7 -7,2
23 25.2.2018 01:30 0 63,7 -6,6
24 25.2.2018 01:00 0 61,2 -5,9
25 25.2.2018 00:30 0 60 -5,7
26 25.2.2018 00:00 0 59,7 -5,4
27 24.2.2018 23:30 0 62,1 -5,3
28 24.2.2018 23:00 0 66,4 -5,3
29 24.2.2018 22:30 0 68,8 -5,1
30 24.2.2018 22:00 0 70,7 -4,9
31 24.2.2018 21:30 0 72,5 -4,7
32 24.2.2018 21:00 0 70,6 -4,5
33 24.2.2018 20:30 0 67,8 -4,2
34 24.2.2018 20:00 0 67,8 -4
35 24.2.2018 19:30 0 67,5 -3,8
36 24.2.2018 19:00 0 67 -3,7
37 24.2.2018 18:30 0 68,9 -3,6
38 24.2.2018 18:00 0 72,3 -3,6
39 24.2.2018 17:30 0 70,8 -3,3
40 24.2.2018 17:00 0 70,9 -3,2
41 24.2.2018 16:30 0 72,4 -3,1
42 24.2.2018 16:00 0 70,8 -3
43 24.2.2018 15:30 0 66,8 -2,7
44 24.2.2018 15:00 0 72,3 -2,8
45 24.2.2018 14:30 0 70,3 -2,7
46 24.2.2018 14:00 0 70,8 -2,8
47 24.2.2018 13:30 0 75,5 -3
48 24.2.2018 13:00 0 81,8 -2,9
© 2011 Ministrstvo za kmetijstvo, gozdarstvo in prehrano. Vse pravice pridržane.